This demonstration page uses our WeatherBlox Daily Observations layout. Learn more.

Left ArrowRight Arrow

Hourly Observations for January 5, 2020

Temp ( °F °C ) Dew Point ( °F °C ) Humidity (%) Winds ( mph kmh ) Pressure ( in mb ) Visibility ( mi km ) Precip ( " mm )
12:15 am 00:15 Cloudy 30 -1 30 -1 100 100 WNW 13 20 30.21 1023 10 16.0934 N/A
12:36 am 00:36 Cloudy 30 -1 28 -2 93 93 WNW 15 24 30.21 1023 10 16.0934 N/A
12:55 am 00:55 Cloudy 30 -1 28 -2 93 93 WNW 15 24 30.22 1023 10 16.0934 N/A
1:16 am 01:16 Cloudy 30 -1 28 -2 93 93 WNW 13 20 30.22 1023 10 16.0934 N/A
1:36 am 01:36 Cloudy 30 -1 28 -2 93 93 W 14 22 30.22 1023 10 16.0934 N/A
1:55 am 01:55 Cloudy 28 -2 27 -3 93 93 WNW 14 22 30.23 1024 10 16.0934 N/A
2:15 am 02:15 Cloudy 28 -2 27 -3 93 93 WNW 14 22 30.22 1023 10 16.0934 N/A
2:36 am 02:36 Cloudy 28 -2 27 -3 93 93 W 12 19 30.23 1024 10 16.0934 N/A
2:55 am 02:55 Cloudy 28 -2 27 -3 93 93 W 12 19 30.24 1024 10 16.0934 N/A
3:15 am 03:15 Cloudy 28 -2 27 -3 93 93 W 9 15 30.24 1024 10 16.0934 N/A
3:35 am 03:35 Cloudy 28 -2 27 -3 93 93 W 7 11 30.24 1024 10 16.0934 N/A
3:55 am 03:55 Partly Cloudy 27 -3 25 -4 93 93 W 6 9 30.25 1024 10 16.0934 N/A
4:16 am 04:16 Partly Cloudy 27 -3 25 -4 93 93 WNW 7 11 30.25 1024 10 16.0934 N/A
4:36 am 04:36 Partly Cloudy 25 -4 25 -4 100 100 W 6 9 30.25 1024 10 16.0934 N/A
4:56 am 04:56 Clear 25 -4 25 -4 100 100 WSW 6 9 30.25 1024 10 16.0934 N/A
5:15 am 05:15 Clear 23 -5 23 -5 100 100 W 5 7 30.26 1025 10 16.0934 N/A
5:35 am 05:35 Clear 23 -5 23 -5 100 100 W 5 7 30.27 1025 10 16.0934 N/A
5:56 am 05:56 Clear 25 -4 25 -4 100 100 SW 5 7 30.25 1024 10 16.0934 N/A
6:16 am 06:16 Clear 25 -4 25 -4 100 100 SSW 3 6 30.26 1025 10 16.0934 N/A
6:35 am 06:35 Clear 25 -4 25 -4 100 100 SSW 5 7 30.26 1025 10 16.0934 N/A
6:55 am 06:55 Partly Cloudy 25 -4 25 -4 100 100 SSW 3 6 30.26 1025 10 16.0934 N/A
7:16 am 07:16 Partly Cloudy 25 -4 25 -4 100 100 S 3 6 30.25 1024 10 16.0934 N/A
7:36 am 07:36 Clear 25 -4 25 -4 100 100 S 5 7 30.25 1024 10 16.0934 N/A
7:55 am 07:55 Clear 25 -4 25 -4 100 100 S 6 9 30.26 1025 10 16.0934 N/A
8:16 am 08:16 Sunny 25 -4 25 -4 100 100 SSW 7 11 30.28 1025 10 16.0934 N/A
8:35 am 08:35 Sunny 27 -3 27 -3 100 100 SSW 7 11 30.28 1025 10 16.0934 N/A
8:56 am 08:56 Sunny 27 -3 27 -3 100 100 SSW 7 11 30.27 1025 10 16.0934 N/A
9:16 am 09:16 Sunny 28 -2 28 -2 100 100 S 9 15 30.26 1025 10 16.0934 N/A
9:35 am 09:35 Sunny 28 -2 28 -2 100 100 S 9 15 N/A 10 16.0934 N/A
9:55 am 09:55 Sunny 30 -1 30 -1 100 100 S 13 20 30.22 1023 10 16.0934 N/A
10:16 am 10:16 Sunny 30 -1 30 -1 100 100 S 12 19 30.22 1023 10 16.0934 N/A
10:35 am 10:35 Sunny 32 0 30 -1 93 93 S 12 19 30.21 1023 10 16.0934 N/A
10:56 am 10:56 Sunny 32 0 32 0 100 100 S 10 17 30.21 1023 10 16.0934 N/A
11:15 am 11:15 Sunny 34 1 32 0 93 93 S 12 19 30.18 1022 10 16.0934 N/A
11:35 am 11:35 Sunny 34 1 32 0 93 93 S 10 17 30.16 1021 10 16.0934 N/A
11:56 am 11:56 Sunny 36 2 32 0 87 87 SSW 14 22 30.15 1021 10 16.0934 N/A
12:16 pm 12:16 Sunny 36 2 32 0 87 87 SSW 14 22 30.13 1020 10 16.0934 N/A
12:36 pm 12:36 Sunny 37 3 34 1 87 87 S 14 22 30.09 1019 10 16.0934 N/A
12:56 pm 12:56 Sunny 37 3 34 1 87 87 S 13 20 30.08 1019 10 16.0934 N/A
1:16 pm 13:16 Sunny 41 5 36 2 81 81 SW 17 28 30.06 1018 10 16.0934 N/A
1:36 pm 13:36 Sunny 41 5 32 0 70 70 SSW 13 20 30.03 1017 10 16.0934 N/A
1:56 pm 13:56 Sunny 43 6 32 0 66 66 SSW 17 28 30.01 1016 10 16.0934 N/A
2:16 pm 14:16 Sunny 43 6 34 1 71 71 SSW 16 26 30 1016 10 16.0934 N/A
2:35 pm 14:35 Sunny 45 7 34 1 66 66 SSW 18 30 29.99 1016 10 16.0934 N/A
2:55 pm 14:55 Sunny 45 7 34 1 66 66 SSW 16 26 29.96 1015 10 16.0934 N/A
3:16 pm 15:16 Sunny 45 7 34 1 66 66 S 16 26 29.92 1013 10 16.0934 N/A
3:35 pm 15:35 Sunny 45 7 34 1 66 66 SSW 20 31 29.91 1013 10 16.0934 N/A
3:55 pm 15:55 Sunny 45 7 34 1 66 66 SW 17 28 29.95 1014 10 16.0934 N/A
4:16 pm 16:16 Sunny 46 8 34 1 62 62 SW 15 24 29.95 1014 10 16.0934 N/A
4:36 pm 16:36 Partly Cloudy 46 8 34 1 62 62 WSW 18 30 29.97 1015 10 16.0934 N/A
4:55 pm 16:55 Partly Cloudy 45 7 34 1 66 66 WSW 24 39 29.98 1015 10 16.0934 N/A
5:16 pm 17:16 Partly Cloudy 45 7 34 1 66 66 WSW 20 31 29.98 1015 10 16.0934 N/A
5:35 pm 17:35 Clear 43 6 34 1 71 71 WSW 15 24 29.98 1015 10 16.0934 N/A
5:55 pm 17:55 Clear 43 6 36 2 76 76 WSW 17 28 29.98 1015 10 16.0934 N/A
6:16 pm 18:16 Partly Cloudy 43 6 36 2 76 76 WSW 14 22 30 1016 10 16.0934 N/A
6:35 pm 18:35 Cloudy 43 6 36 2 76 76 W 17 28 30.01 1016 10 16.0934 N/A
6:55 pm 18:55 Cloudy 43 6 36 2 76 76 W 17 28 30.02 1017 10 16.0934 N/A
7:15 pm 19:15 Cloudy 43 6 36 2 76 76 W 20 31 30.02 1017 10 16.0934 N/A
7:35 pm 19:35 Cloudy 43 6 36 2 76 76 W 17 28 30.02 1017 10 16.0934 N/A
7:56 pm 19:56 Cloudy 43 6 36 2 76 76 W 15 24 30.02 1017 10 16.0934 N/A
8:16 pm 20:16 Cloudy 41 5 36 2 81 81 WSW 14 22 30.03 1017 10 16.0934 N/A
8:36 pm 20:36 Cloudy 43 6 36 2 76 76 W 15 24 30.03 1017 10 16.0934 N/A
8:56 pm 20:56 Cloudy 43 6 36 2 76 76 W 18 30 30.03 1017 10 16.0934 N/A
9:16 pm 21:16 Cloudy 43 6 37 3 81 81 W 18 30 30.03 1017 10 16.0934 N/A
9:36 pm 21:36 Cloudy 41 5 36 2 81 81 WNW 26 43 30.04 1017 10 16.0934 N/A
9:55 pm 21:55 Cloudy 39 4 34 1 81 81 WNW 31 50 30.06 1018 10 16.0934 N/A
10:16 pm 22:16 Mostly Cloudy 39 4 32 0 75 75 WNW 17 28 30.06 1018 10 16.0934 N/A
10:36 pm 22:36 Cloudy 37 3 34 1 87 87 W 18 30 30.07 1018 10 16.0934 N/A
10:55 pm 22:55 Cloudy 37 3 32 0 81 81 WNW 18 30 30.08 1019 10 16.0934 N/A
11:15 pm 23:15 Cloudy 37 3 32 0 81 81 WNW 23 37 30.08 1019 10 16.0934 N/A
11:35 pm 23:35 Mostly Cloudy 36 2 32 0 87 87 WNW 15 24 30.09 1019 10 16.0934 N/A
11:55 pm 23:55 Clear 36 2 32 0 87 87 WNW 14 22 30.1 1019 10 16.0934 N/A

Powered by AerisWeather